Change the Weather History Date:

Saturday, January 26, 2013

  Actual Average Record
Temperature  
Mean Temperature -4 °F -  
Max Temperature 7 °F 21 °F 46 °F (2014)
Min Temperature -14 °F 6 °F -39 °F (1973)
Degree Days  
Heating Degree Days 68    
Moisture  
Dew Point -13 °F    
Average Humidity 73    
Maximum Humidity 83    
Minimum Humidity 53    
Precipitation  
Precipitation 0.00 in - - ()
Sea Level Pressure  
Sea Level Pressure 29.82 in    
Wind  
Wind Speed 1 mph (ESE)    
Max Wind Speed 7 mph    
Max Gust Speed -    
Visibility 10 miles    
Events      
Averages and records for this station are not official NWS values.
T = Trace of Precipitation, MM = Missing Value Source: NWS Daily Summary

Daily Weather History Graph

Daily Weather History Graph

Search for Another Location

Airport or City:

Trip Planner

Search our weather history database for the weather conditions in past years. The results will help you decide how hot, cold, wet, or windy it might be!

Date:

Astronomy

Jan. 26, 2013 Rise Set
Actual Time 9:34 AM AKST 5:01 PM AKST
Civil Twilight 8:44 AM AKST 5:51 PM AKST
Nautical Twilight 7:51 AM AKST 6:44 PM AKST
Astronomical Twilight 7:01 AM AKST 7:34 PM AKST
Moon 5:23 PM AKST (1/26) 8:46 AM AKST (1/26)
Length of Visible Light 9h 07m
Length of Day
7h 26m
Full, 100% of the Moon is Illuminated
Jan 26
Full
Jan 26
Full
Feb 3
Last Quarter
Feb 9
New
Feb 17
First Quarter

Hourly Weather History & Observations

Time (AKST) Temp. Windchill Dew Point Humidity Pressure Visibility Wind Dir Wind Speed Gust Speed Precip Events Conditions
12:53 AM -5.1 °F - -9.0 °F 83% 29.70 in 10.0 mi Calm Calm - N/A   Clear
1:53 AM -6.0 °F - -11.0 °F 79% 29.72 in 10.0 mi Calm Calm - N/A   Clear
3:53 AM -9.0 °F - -13.0 °F 83% 29.73 in 10.0 mi Calm Calm - N/A   Clear
4:53 AM -11.9 °F -21.5 °F -16.1 °F 82% 29.74 in 10.0 mi NNE 3.5 mph - N/A   Clear
5:53 AM -11.9 °F - -16.1 °F 82% 29.75 in 10.0 mi Calm Calm - N/A   Clear
6:53 AM -13.0 °F - -17.0 °F 82% 29.76 in 10.0 mi Calm Calm - N/A   Clear
7:53 AM -11.9 °F - -18.0 °F 74% 29.77 in 10.0 mi Calm Calm - N/A   Clear
8:53 AM -14.1 °F - -18.9 °F 79% 29.78 in 10.0 mi Calm Calm - N/A   Clear
9:53 AM -14.1 °F - -18.9 °F 79% 29.80 in 10.0 mi Calm Calm - N/A   Clear
10:53 AM -11.0 °F - -16.1 °F 78% 29.81 in 10.0 mi Calm Calm - N/A   Clear
11:53 AM -7.1 °F - -11.9 °F 79% 29.81 in 10.0 mi Calm Calm - N/A   Clear
12:53 PM -0.9 °F - -9.0 °F 69% 29.82 in 10.0 mi Calm Calm - N/A   Clear
1:53 PM 6.1 °F -5.6 °F -7.1 °F 55% 29.83 in 10.0 mi SE 6.9 mph - N/A   Clear
2:53 PM 7.0 °F 0.1 °F -7.1 °F 53% 29.83 in 10.0 mi ESE 3.5 mph - N/A   Clear
3:53 PM 7.0 °F -3.3 °F -7.1 °F 53% 29.84 in 10.0 mi SSE 5.8 mph - N/A   Clear
4:53 PM 3.9 °F - -8.0 °F 58% 29.85 in 10.0 mi Calm Calm - N/A   Clear
5:53 PM -0.9 °F -8.9 °F -9.9 °F 66% 29.86 in 10.0 mi ESE 3.5 mph - N/A   Clear
6:53 PM -4.0 °F - -11.9 °F 69% 29.87 in 10.0 mi Calm Calm - N/A   Clear
7:53 PM -6.0 °F - -13.0 °F 72% 29.89 in 10.0 mi Calm Calm - N/A   Clear
8:53 PM -11.0 °F - -16.1 °F 78% 29.90 in 10.0 mi Calm Calm - N/A   Clear
9:53 PM -11.9 °F -21.5 °F -17.0 °F 78% 29.91 in 10.0 mi East 3.5 mph - N/A   Clear
10:53 PM -14.1 °F - -18.9 °F 79% 29.92 in 10.0 mi Calm Calm - N/A   Clear
11:53 PM -14.1 °F - -18.9 °F 79% 29.92 in 10.0 mi Calm Calm - N/A   Clear